Location: Austin
(30.3000°N, 97.7500°W)
Time: 04:07:20
(UTC-05:00)

Cosmos 2333 Rocket - Pass Details

Date: 18 March 2023
Orbit: 837 x 864 km, 70.8° (Epoch: 01 April)

Event Time Altitude Azimuth Distance (km) Brightness Sun altitude
Rises 21:49:28 0° 336° (NNW) 3,446 5.9 -28.1°
Reaches altitude 10° 21:51:57 10° 334° (NNW) 2,505 5.1 -28.6°
Maximum altitude 21:57:40 68° 253° (WSW) 927 2.4 -29.8°
Enters shadow 21:57:58 66° 233° (SW) 935 2.4 -29.9°
